カタログに戻る

STARLINK-30605

運用中通信VLEO
NORAD 58101·PAYLOAD·🇺🇸 United States

打ち上げ Oct 21, 2023 から Vandenberg Space Force Base

Loading…

次のパス (今後24時間)

TLE

最新Source: CelesTrak SupGP

元期: Sep 15, 2026, 01:42 UTC

1 58101C 23161E   26258.07131944  .00036846  00000+0  10880-2 0  2583
2 58101  53.1602   3.3137 0001254  73.3208 260.4758 15.34390702    13

AllMySatでSTARLINK-30605をリアルタイム追跡

Download on the App Store